sat.trackr.live / text

‹ back to catalog

STARLINK-3146

NORAD 49414 · 2021-104G

PAYLOAD ACTIVE UNKNOWN

§ Identity

Operator
Country
US
Launch date
2021-11-13
Launch site
AFETR
Launch vehicle
Mass (kg)
RCS (m²)

Purposes: comms

External: N2YO · Heavens-Above · Gunter

§ Orbital elements

Epoch: 2026-09-19T19:07:50.815488Z

Period
93.90 min
Inclination
53.1597°
Eccentricity
0.0001296
Mean motion
15.33549790 rev/d
Perigee alt
464.3 km
Apogee alt
466.1 km
Semi-major
6,843.4 km
B*
1.3111e-5
RAAN
65.1416°
Arg perigee
78.4313°
Mean anomaly
281.6835°
Rev number
26,810

§ Raw data

STARLINK-31461 49414U 21104G   26262.79711592  .00000058  00000+0  13111-4 0  99922 49414  53.1597  65.1416 0001296  78.4313 281.6835 15.33549790268107

JSON: /api/v1/satellites/49414 · /tle

For live sub-satellite position, see the globe view (requires WebGL).

§ Visibility from observer

Set your observer location to see the next 7 days of passes ≥ 10°. The values pass through the URL so the page stays shareable.

No JS? Fill the form by hand. The geolocation button needs JavaScript.